Location: Long Barn
(38.0930°N, 120.1344°W)
Time: 19:57:16
(UTC+00:00)

Hubble Space Telescope - Pass Details

Date: 26 January 2026
Orbit: 478 x 480 km, 28.5° (Epoch: 5 February)

Event Time Altitude Azimuth Distance (km) Brightness Sun altitude
Rises 03:23:14 0° 243° (WSW) 2,513 5.3 -25.0°
Reaches altitude 10° 03:25:53 10° 225° (SW) 1,636 3.8 -25.5°
Enters shadow 03:27:35 17° 200° (SSW) 1,263 2.9 -25.9°
